Stillwater, OK

1:47 AM CST on February 21, 2018 (GMT -0600)
Stillwater Municipal

Weather History for KSWO - October, 2013

Change the Weather History Date:

Saturday, October 5, 2013

  Actual Average Record
Temperature  
Mean Temperature 56 °F -  
Max Temperature 66 °F 74 °F 93 °F (2016)
Min Temperature 46 °F 50 °F 37 °F (2001)
Degree Days  
Heating Degree Days 9    
Growing Degree Days 6 (Base 50)    
Moisture  
Dew Point 43 °F    
Average Humidity 67    
Maximum Humidity 100    
Minimum Humidity 32    
Precipitation  
Precipitation 0.33 in - - ()
Sea Level Pressure  
Sea Level Pressure 30.03 in    
Wind  
Wind Speed 11 mph (NW)    
Max Wind Speed 17 mph    
Max Gust Speed 32 mph    
Visibility 9 miles    
Events Rain , Thunderstorm    
Averages and records for this station are not official NWS values.
T = Trace of Precipitation, MM = Missing Value Source: NWS Daily Summary

Daily Weather History Graph

Daily Weather History Graph

Search for Another Location

Airport or City:

Trip Planner

Search our weather history database for the weather conditions in past years. The results will help you decide how hot, cold, wet, or windy it might be!

Date:

Astronomy

Oct. 05, 2013 Rise Set
Actual Time 7:26 AM CDT 7:05 PM CDT
Civil Twilight 7:01 AM CDT 7:31 PM CDT
Nautical Twilight 6:31 AM CDT 8:01 PM CDT
Astronomical Twilight 6:01 AM CDT 8:30 PM CDT
Moon 8:05 AM CDT (10/5) 7:28 PM CDT (10/5)
Length of Visible Light 12h 30m
Length of Day
11h 38m
New Moon, 1% of the Moon is Illuminated
Oct 5
New Moon
Oct 11
First Quarter
Oct 18
Full
Oct 26
Last Quarter
Nov 3
New

Hourly Weather History & Observations

Time (CDT) Temp. Dew Point Humidity Pressure Visibility Wind Dir Wind Speed Gust Speed Precip Events Conditions
12:03 AM 62.6 °F 62.6 °F 100% 29.92 in 1.8 mi NNE 16.1 mph 19.6 mph 0.13 in Rain , Thunderstorm Heavy Thunderstorms and Rain
12:07 AM 62.6 °F 60.8 °F 94% 29.91 in 3.0 mi North 13.8 mph 20.7 mph 0.15 in Rain , Thunderstorm Heavy Thunderstorms and Rain
12:53 AM 57.0 °F 52.0 °F 83% 29.92 in 10.0 mi NNW 17.3 mph 32.2 mph 0.19 in Rain Light Rain
1:03 AM 57.2 °F 51.8 °F 82% 29.94 in 10.0 mi North 15.0 mph 23.0 mph 0.01 in Rain , Thunderstorm Light Rain
1:49 AM 53.6 °F 50.0 °F 88% 30.01 in 7.0 mi WNW 9.2 mph 23.0 mph 0.07 in Rain Light Rain
1:53 AM 54.0 °F 51.1 °F 90% 29.97 in 10.0 mi NNW 11.5 mph 16.1 mph 0.07 in Rain Light Rain
2:31 AM 53.6 °F 46.4 °F 77% 30.00 in 10.0 mi NNW 9.2 mph - 0.00 in Thunderstorm Thunderstorm
2:46 AM 53.6 °F 46.4 °F 77% 30.02 in 10.0 mi NW 8.1 mph - 0.01 in Rain Light Rain
2:53 AM 52.0 °F 46.0 °F 80% 29.99 in 7.0 mi NW 11.5 mph - 0.03 in Rain Rain
3:53 AM 51.1 °F 44.1 °F 77% 29.99 in 10.0 mi North 6.9 mph - 0.04 in   Partly Cloudy
4:53 AM 50.0 °F 42.1 °F 74% 30.02 in 10.0 mi NNW 5.8 mph - N/A   Partly Cloudy
5:04 AM 51.8 °F 42.8 °F 71% 30.05 in 10.0 mi NW 6.9 mph - N/A Thunderstorm Mostly Cloudy
5:19 AM 51.8 °F 42.8 °F 71% 30.04 in 10.0 mi NNW 8.1 mph - N/A   Overcast
5:53 AM 50.0 °F 39.9 °F 68% 30.02 in 10.0 mi NNW 10.4 mph 18.4 mph N/A   Mostly Cloudy
6:53 AM 50.0 °F 39.0 °F 66% 30.02 in 10.0 mi NW 11.5 mph 20.7 mph N/A   Overcast
7:53 AM 51.1 °F 37.0 °F 59% 30.05 in 10.0 mi NNW 12.7 mph - N/A   Overcast
8:53 AM 51.1 °F 37.0 °F 59% 30.10 in 10.0 mi NW 9.2 mph 17.3 mph N/A   Overcast
9:53 AM 53.1 °F 37.0 °F 55% 30.12 in 10.0 mi NW 12.7 mph 19.6 mph N/A   Overcast
10:53 AM 57.0 °F 36.0 °F 45% 30.12 in 10.0 mi NNW 16.1 mph 23.0 mph N/A   Scattered Clouds
11:53 AM 60.1 °F 37.0 °F 42% 30.12 in 10.0 mi NNW 15.0 mph 21.9 mph N/A   Clear
12:53 PM 62.1 °F 37.9 °F 41% 30.11 in 10.0 mi NW 11.5 mph 18.4 mph N/A   Clear
1:53 PM 64.0 °F 37.0 °F 37% 30.09 in 10.0 mi NW 15.0 mph 20.7 mph N/A   Clear
2:53 PM 64.0 °F 36.0 °F 35% 30.06 in 10.0 mi NNW 12.7 mph 19.6 mph N/A   Clear
3:53 PM 64.9 °F 36.0 °F 34% 30.04 in 10.0 mi NW 15.0 mph - N/A   Clear
4:53 PM 66.0 °F 35.1 °F 32% 30.03 in 10.0 mi NW 10.4 mph - N/A   Clear
5:53 PM 66.0 °F 36.0 °F 33% 30.02 in 10.0 mi WNW 4.6 mph - N/A   Clear
6:53 PM 62.1 °F 42.1 °F 48% 30.01 in 10.0 mi Calm Calm - N/A   Clear
7:53 PM 54.0 °F 44.1 °F 69% 30.04 in 10.0 mi Calm Calm - N/A   Clear
8:53 PM 51.1 °F 46.0 °F 83% 30.05 in 10.0 mi Calm Calm - N/A   Clear
9:53 PM 48.9 °F 45.0 °F 86% 30.05 in 10.0 mi Calm Calm - N/A   Clear
10:53 PM 46.9 °F 45.0 °F 93% 30.06 in 10.0 mi WSW 3.5 mph - N/A   Clear
11:53 PM 46.0 °F 44.1 °F 93% 30.05 in 10.0 mi Calm Calm - N/A   Clear